Theta_e
312 312 312 312 312 313 314 316 321 315 315 319 318 320 317 312 315 314 316 315 316 316 316 316 316 316 316 314 314 316 317 317 318 318 320 321 324 327 328 332 334 332 333 333
312 312 312 312 312 312 314 317 317 314 316 321 318 316 315 314 315 314 314 315 314 315 315 315 315 315 314 312 314 315 317 317 318 317 317 318 322 325 328 328 331 334 334 334
311 312 313 313 312 311 314 317 321 315 315 315 317 317 315 315 312 313 312 313 313 314 314 314 314 314 313 312 312 312 313 316 318 318 319 318 320 320 325 328 330 331 333 333
312 313 313 313 312 312 314 316 315 314 317 316 315 315 314 314 314 312 311 313 312 313 314 313 313 313 312 312 312 311 313 315 316 317 317 317 317 319 322 327 329 331 331 333
313 313 313 313 312 313 315 317 316 313 314 314 315 312 314 313 312 313 312 312 311 311 312 311 312 311 311 311 312 313 313 315 315 316 316 316 316 316 317 319 321 324 328 330
313 313 313 312 312 314 314 312 313 314 312 314 315 314 313 312 311 310 310 310 311 312 311 310 310 310 310 310 311 312 314 315 316 317 315 316 316 316 316 316 318 320 325 328
313 313 312 310 310 312 313 313 314 314 315 315 314 311 311 311 311 312 310 310 311 310 310 310 310 311 310 310 311 310 312 314 315 318 316 317 315 317 319 320 319 319 321 323
313 313 312 309 308 311 313 312 314 314 316 314 313 312 311 310 310 310 310 310 310 310 311 313 314 314 314 313 312 312 311 311 316 316 315 315 315 320 321 322 321 326 321 321
312 312 311 308 308 310 313 312 313 314 316 315 312 312 311 310 312 312 310 310 310 310 312 313 315 316 314 314 314 314 312 312 313 313 315 315 319 317 316 319 321 323 322 323
312 312 310 309 308 309 313 312 312 314 316 313 313 312 311 310 311 313 311 311 311 311 311 314 316 315 314 314 313 315 315 316 315 314 314 313 316 316 314 321 321 317 317 318
312 312 310 308 308 308 313 311 311 314 315 314 313 311 311 310 311 314 312 313 312 311 312 314 314 314 313 313 312 313 313 316 317 316 315 314 314 315 316 318 317 315 315 315
313 311 310 309 309 308 312 315 310 311 314 315 313 312 311 311 311 312 312 312 311 311 312 312 313 312 312 312 315 310 314 311 313 314 314 312 314 313 313 313 314 313 313 314
313 310 309 309 309 309 311 314 313 313 315 316 315 315 312 311 311 310 312 312 311 311 311 310 312 312 311 312 311 311 310 307 310 311 311 312 312 312 313 312 312 312 312 314
313 313 311 310 309 309 310 315 314 314 315 317 317 314 314 311 312 311 311 311 311 311 310 310 312 312 310 311 310 309 308 306 309 310 310 307 311 308 309 309 310 311 311 313
313 313 313 313 312 312 312 314 314 314 314 318 317 315 315 313 313 312 312 312 311 311 312 312 312 309 309 308 309 309 304 304 307 308 304 304 305 307 307 308 309 309 311 313
316 314 313 313 312 313 313 316 315 314 314 315 318 317 315 313 313 313 312 312 311 311 310 310 309 309 309 311 310 308 306 305 304 304 304 304 304 305 306 306 307 308 309 311
316 316 315 314 313 313 314 315 314 313 313 314 318 317 317 315 313 312 310 311 311 311 311 310 310 310 308 311 311 308 307 306 306 305 305 304 303 303 303 304 305 307 309 311
315 315 315 314 313 314 314 314 314 313 313 314 317 318 318 315 314 312 309 308 308 312 312 311 310 311 310 311 309 308 309 308 307 306 305 304 302 302 301 302 304 306 309 313
313 313 313 313 313 314 315 314 313 311 312 314 314 321 318 316 315 310 308 308 312 311 314 313 311 312 310 311 308 308 308 308 307 306 305 305 304 301 300 300 301 303 305 307
313 313 314 315 315 315 314 311 312 312 313 312 314 317 317 317 316 313 311 309 313 315 314 312 314 313 310 308 308 308 307 307 308 307 306 305 305 303 301 300 300 301 302 305
315 318 319 318 316 313 313 315 316 317 316 316 316 316 316 316 318 318 314 314 314 316 315 313 314 313 309 308 307 307 307 307 307 307 306 306 305 305 304 303 301 301 301 302
319 319 317 315 313 315 318 322 321 321 320 318 318 316 316 315 317 317 315 315 315 315 312 312 314 313 309 308 308 307 307 308 307 307 307 306 306 306 305 305 303 301 301 301
318 318 318 318 321 320 322 321 320 320 317 315 313 316 317 317 316 316 315 315 316 313 314 314 313 311 309 309 308 306 307 307 306 305 306 305 305 306 306 305 305 304 302 302
321 322 321 323 323 321 321 319 324 319 317 316 312 315 318 315 315 314 316 316 313 313 314 313 313 311 309 307 307 307 307 306 305 305 305 305 304 305 305 304 304 305 305 303
322 322 325 322 321 319 321 320 321 318 316 313 314 316 311 314 314 313 312 312 313 314 313 312 311 310 308 307 307 306 307 306 305 305 305 305 304 304 305 304 304 304 305 304
322 322 322 321 322 321 321 319 319 316 316 315 314 314 314 314 313 312 312 312 313 313 311 310 310 309 308 307 306 306 306 306 305 304 304 304 304 304 304 304 304 304 304 305
323 322 321 321 322 321 320 319 318 316 314 316 314 314 314 313 313 313 314 314 312 310 310 309 309 308 307 306 306 306 306 306 305 304 305 304 304 304 304 304 305 304 305 305
Wind_Speed
26 26 25 23 23 20 9 3 3 13 5 8 4 5 5 1 4 3 2 4 5 5 6 8 12 10 3 7 9 13 10 9 14 20 16 20 24 19 27 15 21 20 16 13
27 26 23 20 19 19 9 4 8 13 5 2 6 6 8 6 4 6 4 2 4 4 8 4 7 7 9 7 10 7 11 10 13 17 15 18 17 19 19 24 22 21 18 16
28 25 20 17 16 13 8 5 1 8 14 8 6 5 5 4 5 4 4 5 4 6 7 5 6 5 5 7 13 10 9 14 18 15 6 12 12 24 22 19 17 22 19 19
27 23 17 14 12 12 7 8 5 5 6 8 8 6 1 3 4 3 3 4 5 6 5 4 6 7 10 7 15 12 12 18 19 19 19 16 14 15 13 16 18 19 18 19
24 20 15 11 11 12 9 4 3 7 7 3 4 3 7 6 5 2 6 2 2 6 6 9 14 14 12 10 4 10 15 12 17 19 19 16 19 17 18 19 20 22 22 19
21 18 14 11 13 13 6 8 7 4 1 3 3 8 7 6 4 4 3 2 9 7 8 10 16 18 18 16 13 11 6 8 11 17 18 20 22 23 20 21 22 21 21 18
19 15 12 10 12 18 7 7 6 8 4 6 7 4 3 4 3 4 4 5 9 5 14 18 20 24 24 23 21 21 15 11 5 11 13 16 14 7 10 14 16 23 22 21
14 11 10 9 12 17 9 6 5 6 5 5 7 5 6 4 2 6 6 6 8 10 12 9 10 3 8 16 18 19 17 13 6 7 13 15 9 9 5 4 12 20 20 23
11 8 7 9 10 13 10 8 7 4 3 10 6 5 2 1 2 6 3 8 5 7 7 5 6 4 8 4 5 14 17 16 11 11 13 15 9 4 4 3 11 15 16 15
8 7 6 8 8 10 11 3 9 4 5 9 8 6 1 1 2 6 2 8 5 3 3 3 3 3 2 3 6 5 7 11 15 14 13 14 7 7 4 5 2 12 13 16
7 6 6 7 7 6 10 1 4 5 4 7 5 3 1 2 6 5 11 4 1 6 3 4 3 3 3 1 3 8 5 5 9 12 16 19 9 7 8 8 9 13 14 11
6 5 5 7 5 4 8 3 4 2 1 4 1 2 0 2 3 1 5 5 6 5 3 3 3 2 3 6 3 6 3 4 5 6 7 2 1 7 14 15 12 13 16 16
5 5 5 6 4 2 3 1 3 4 4 5 4 4 2 1 1 4 2 4 4 3 4 6 3 2 2 3 2 5 3 7 4 12 12 12 10 14 9 7 13 17 18 18
3 4 3 2 1 0 1 1 6 4 8 5 4 3 2 3 2 3 3 2 4 5 8 6 1 1 6 2 6 1 2 8 5 7 17 22 4 14 14 17 18 20 20 18
3 2 2 2 1 3 2 2 5 3 4 7 1 4 5 3 4 3 2 3 4 3 4 4 1 1 1 3 3 0 2 3 3 4 19 16 20 16 18 17 18 20 21 20
4 3 3 4 4 5 3 2 2 3 4 6 2 5 7 7 6 5 4 4 5 7 5 1 1 1 2 2 2 1 4 5 9 7 15 14 17 17 13 17 20 20 20 20
6 5 4 6 7 6 3 2 4 7 5 4 5 4 5 8 6 4 7 5 6 6 4 4 1 5 5 3 3 7 5 4 5 11 16 15 16 17 17 16 17 16 17 22
8 7 6 7 8 9 7 7 7 9 4 5 3 5 7 10 6 5 5 4 8 6 5 6 5 4 2 2 10 12 5 6 6 7 9 9 22 18 19 17 18 15 11 11
7 7 8 8 2 3 7 11 11 6 5 3 4 3 4 9 5 4 5 6 4 7 4 4 2 2 2 6 8 11 11 8 9 7 11 14 15 24 21 22 21 22 18 16
7 4 2 2 4 7 12 2 3 4 5 6 5 8 6 9 10 8 6 5 3 3 5 2 3 3 5 2 5 7 9 11 10 11 12 15 15 16 24 24 22 19 17 15
2 3 3 7 10 5 3 4 6 7 4 8 8 10 8 4 3 4 8 4 3 3 4 2 2 2 4 6 6 7 7 8 9 9 10 10 12 14 13 18 23 19 16 14
6 5 3 8 2 4 6 5 6 6 3 4 10 3 7 3 2 4 6 3 2 2 4 2 1 2 3 5 8 8 7 8 9 10 9 12 11 11 13 12 14 20 19 15
4 2 3 3 5 3 6 3 1 2 6 1 12 14 11 3 0 2 1 3 4 5 3 2 2 3 5 5 7 9 7 6 9 8 9 11 12 11 10 13 11 12 19 20
4 7 4 5 5 2 1 6 11 9 5 6 3 13 7 5 2 2 3 5 2 1 1 3 4 5 7 6 6 7 7 8 9 11 10 11 12 13 11 11 11 11 11 16
5 3 4 6 13 28 10 1 4 8 4 4 9 5 4 5 1 3 3 3 2 2 1 3 6 5 6 8 9 9 6 5 10 11 10 10 11 12 11 9 8 10 10 13
4 6 11 9 10 11 17 14 12 6 4 5 4 3 2 1 2 2 3 4 3 4 8 11 5 5 6 7 9 8 8 6 5 9 10 10 10 10 10 9 8 8 9 11
5 6 9 13 12 13 8 11 8 6 7 5 3 1 3 3 3 4 5 4 5 8 5 5 6 7 6 9 10 9 7 4 4 8 8 7 8 8 8 8 7 7 8 7
Wind_Direction
350 350 350 349 351 1 27 298 269 350 349 242 343 51 16 323 22 28 27 289 317 292 322 280 278 273 345 69 325 306 312 281 248 248 229 238 244 249 233 239 227 234 252 238
349 348 349 349 357 5 34 8 41 6 310 292 94 125 97 48 28 24 9 13 346 7 306 298 262 293 340 349 296 315 329 236 248 244 261 265 252 246 261 233 252 229 223 234
347 347 350 354 5 18 55 316 199 65 52 42 86 114 39 106 55 67 11 343 302 306 270 222 277 274 332 324 286 10 309 274 279 272 297 343 279 232 244 259 242 238 235 225
348 350 357 6 25 55 35 8 60 357 21 51 67 57 43 66 49 25 15 51 1 10 300 304 267 270 292 262 271 248 250 265 268 278 286 278 280 293 287 255 261 271 260 234
351 356 4 23 55 61 42 29 68 72 80 20 97 165 68 37 9 341 41 68 323 301 286 297 312 304 284 281 266 275 275 257 284 270 267 263 261 246 249 260 262 271 274 276
356 1 13 41 76 57 50 67 71 66 13 50 22 38 36 21 326 29 7 319 295 296 348 304 291 289 285 269 262 263 267 280 283 265 259 250 244 242 239 244 246 248 251 252
359 9 28 65 88 77 76 84 76 85 80 66 59 43 67 15 322 284 236 292 271 330 312 296 274 260 257 257 257 250 243 228 282 279 283 258 250 238 266 266 244 241 250 262
4 19 43 85 88 90 67 61 65 54 72 67 85 35 18 68 280 268 268 256 297 307 293 304 295 274 289 256 245 248 239 245 229 259 262 260 246 45 25 351 229 352 248 230
4 35 63 103 94 93 76 72 73 73 3 44 18 34 71 26 300 210 235 262 304 298 320 296 295 320 7 311 286 250 243 233 248 247 265 256 79 79 25 320 242 13 3 3
7 48 82 113 111 97 83 52 95 35 40 49 28 36 55 215 294 281 316 341 320 322 318 292 306 338 74 327 312 322 271 253 245 230 249 265 62 99 278 238 58 355 352 343
17 52 103 123 116 99 88 11 57 63 18 68 43 69 281 193 284 312 14 282 331 17 288 335 359 327 348 256 270 307 303 263 225 237 247 251 60 309 272 21 318 317 317 316
22 47 100 152 129 104 78 352 329 11 270 44 45 12 28 178 231 254 338 35 15 352 329 358 32 317 321 323 357 339 290 357 317 283 241 201 317 294 296 294 295 298 300 291
30 68 103 135 144 125 107 1 306 0 297 228 217 189 168 123 191 186 301 32 349 327 302 318 5 289 2 326 352 324 351 359 304 315 265 290 319 305 319 332 289 286 281 275
14 42 74 118 135 35 54 353 294 341 307 282 180 158 175 166 169 163 199 273 313 297 294 293 222 282 342 327 314 274 314 302 277 270 292 331 258 341 316 309 295 288 282 276
348 342 343 335 332 335 281 236 273 298 318 317 311 179 227 179 203 208 235 272 305 269 265 212 124 310 268 266 275 10 253 292 301 296 307 292 290 301 303 295 290 283 280 277
324 324 319 306 310 333 39 308 215 269 323 288 261 183 182 205 210 230 247 256 267 279 296 86 282 250 253 252 294 88 40 336 330 289 327 319 314 313 311 305 296 288 275 268
301 308 310 294 287 284 245 284 214 294 301 257 276 155 182 196 216 227 215 242 247 272 242 261 184 206 208 285 330 2 166 270 321 356 352 355 349 336 332 329 325 306 285 265
289 292 299 294 287 292 289 268 268 293 238 253 265 292 162 183 181 194 215 208 221 253 238 244 191 143 5 282 318 342 8 291 286 353 9 8 4 355 358 2 4 6 358 356
289 287 294 300 263 236 244 273 283 243 207 234 221 265 325 175 151 165 162 174 219 246 221 271 110 81 215 270 337 339 1 350 346 16 10 9 19 12 6 13 15 17 13 8
290 294 343 247 221 266 292 287 219 219 215 224 242 255 268 202 169 182 165 187 230 221 234 244 146 232 242 20 338 352 350 359 350 1 15 11 21 13 14 17 17 17 16 13
345 248 236 257 281 295 242 246 221 185 232 215 228 241 292 225 226 199 201 167 240 248 177 209 226 258 54 14 348 344 357 359 356 360 5 21 15 16 4 9 16 22 27 24
245 258 303 290 241 226 244 228 188 203 252 90 287 3 250 289 236 225 176 188 253 269 171 149 278 229 75 11 336 345 350 345 4 359 6 11 16 8 18 13 22 24 45 51
307 253 231 230 200 261 234 256 64 178 148 267 331 319 273 170 230 279 111 234 205 194 151 210 235 107 64 6 342 336 351 345 357 11 15 17 18 25 30 24 28 23 36 40
251 201 247 240 216 228 56 359 324 55 334 326 259 270 6 20 71 255 247 230 242 65 34 352 77 38 34 0 333 336 359 343 360 11 21 24 24 32 46 38 31 32 38 36
257 249 250 234 7 350 342 303 33 353 353 287 287 91 142 208 7 276 335 278 48 215 300 71 85 38 30 357 346 338 355 334 357 2 11 10 22 29 34 44 42 36 39 43
245 247 259 313 335 9 344 9 22 359 339 269 259 121 256 292 340 268 288 11 1 24 336 60 52 20 360 349 340 330 325 329 2 357 359 356 3 13 31 30 36 42 46 50
236 219 47 285 6 17 343 9 15 351 332 9 17 329 35 331 277 14 20 9 345 22 9 22 13 4 331 333 330 327 328 297 7 344 346 356 349 344 13 37 40 48 42 65